Location: Cambridge (historical)
(38.6883°N, 119.0140°W)
Time: 13:03:16
(UTC+00:00)

Meteor 2-5 Rocket - Pass Details

Date: 29 October 2020
Orbit: 833 x 911 km, 81.2° (Epoch: 01 December)

Event Time Altitude Azimuth Distance (km) Brightness Sun altitude
Rises 12:44:10 0° 204° (SSW) 3,415 6.6 -19.3°
Reaches altitude 10° 12:46:39 10° 210° (SSW) 2,495 5.9 -18.8°
Maximum altitude 12:52:06 47° 284° (WNW) 1,154 4.0 -17.7°
Drops below altitude 10° 12:57:41 10° 357° (N) 2,561 6.1 -16.7°
Sets 13:00:17 0° 3° (N) 3,516 6.9 -16.1°
